[[{"header":{"parameterUnit":"m.s-1","parameterCategory":1,"la1":30.2991,"la2":30.254,"lo1":-89.0895,"lo2":-89.0444,"dy":0.0017,"dx":0.0017,"nx":28,"ny":28,"refTime":"2024-07-17T21:00:00:Z","depth":0,"parameterNumber":2,"parameterNumberName":"U-component_of_WINDS"},"data":[0,0,0,0,0,0,0,0,0,0,0,0,0,0,0,0,0,0,0,0,0,0,0,0,0,0,0,0,0,0,0,0,0,0,0,0,0,0,0,0,0,0,0,0,0,0,0,0,0,0,0,0,0,0,0,0,0,0,1.2956,1.2957,0,1.3063,1.3065,1.3066,1.3074,1.3073,1.3072,1.3071,1.3183,1.3187,1.3191,0,0,0,0,0,0,0,0,0,0,0,0,0,1.2761,1.2764,1.2956,1.2957,1.2959,1.3063,1.3065,1.3066,1.3074,1.3073,1.3071,1.307,1.3182,1.3187,1.3192,0,0,0,0,0,0,0,0,0,0,0,0,0,1.2855,1.2765,1.2956,1.2975,1.2978,1.3063,1.3065,1.3066,1.3075,1.3073,1.3071,1.3069,1.318,1.3186,1.3193,1.3266,0,0,1.3211,1.3214,0,0,0,0,0,0,0,0,1.2849,1.2862,1.2971,1.2974,1.2977,1.3053,1.3037,1.3133,1.3075,1.3038,1.3071,1.3069,1.3142,1.3151,1.3175,1.3271,1.3276,1.3212,1.3216,1.3218,1.322,0,0,0,0,0,0,0,1.2843,1.2857,1.2999,1.2973,1.2977,1.298,1.2991,1.3055,1.3099,1.3041,1.3042,1.3054,1.3143,1.3169,1.3178,1.3278,1.3212,1.3217,1.3221,1.3223,1.3439,1.3441,0,0,0,0,0,0,1.2832,1.2852,1.2995,1.3002,1.2908,1.2984,1.2997,1.3031,1.3098,1.3106,1.3056,1.3054,1.316,1.3171,1.3182,1.3271,1.3218,1.3224,1.3228,1.3437,1.3439,1.3441,0,0,0,0,0,0,1.2828,1.2845,1.2991,1.2927,1.2946,1.299,1.3028,1.3034,1.306,1.3109,1.3117,1.3074,1.3159,1.3173,1.3245,1.3275,1.3227,1.3232,1.3434,1.3437,1.344,1.3451,0,0,0,0,0,0,1.2822,1.2843,1.2871,1.2928,1.2949,1.3051,1.3029,1.3037,1.307,1.3069,1.3128,1.3137,1.3158,1.3235,1.3251,1.3283,1.3237,1.3432,1.3436,1.3439,1.3448,1.3454,1.346,0,0,0,0,0,1.2815,1.2871,1.2872,1.289,1.2985,1.3053,1.3065,1.3088,1.3073,1.3101,1.3133,1.3135,1.327,1.3243,1.326,1.3295,1.343,1.3435,1.3439,1.3446,1.3453,1.3459,0,0,0,0,0,0,1.2818,1.2879,1.2881,1.2956,1.2999,1.3054,1.3091,1.3095,1.3144,1.3142,1.3169,1.3183,1.3253,1.3281,1.325,1.3369,1.3348,1.3356,1.3348,1.3355,1.336,1.3352,1.3242,0,0,0,0,0,1.2827,1.2876,1.2927,1.2989,1.301,1.3047,1.3077,1.3091,1.3137,1.3156,1.3192,1.3238,1.329,1.3324,1.3375,1.3453,1.3466,1.3485,1.3491,1.3495,1.3502,1.3544,1.3553,1.3456,1.3456,1.3456,0,0,1.2847,1.2886,1.2916,1.299,1.3025,1.3076,1.3062,1.3117,1.3155,1.3164,1.3233,1.3262,1.3314,1.3389,1.3423,1.3414,1.3531,1.3501,1.3504,1.3508,1.355,1.3559,1.3567,1.3459,1.3459,1.3458,0,0,1.2909,1.2944,1.2998,1.3033,1.3086,1.3109,1.3123,1.3177,1.3196,1.3265,1.3273,1.3319,1.341,1.3446,1.3477,1.3552,1.3555,1.3568,1.3597,1.3638,1.3645,1.3652,1.3678,1.3687,1.3574,1.3575,1.3575,0,1.2927,1.3003,1.3026,1.308,1.3113,1.3122,1.3178,1.3211,1.3278,1.3301,1.3289,1.3402,1.3438,1.3521,1.3539,1.3564,1.3579,1.3561,1.3642,1.3649,1.3656,1.3681,1.3691,1.3576,1.3576,1.3575,1.3575,0,1.3022,1.3075,1.3113,1.3176,1.3213,1.3268,1.3299,1.3334,1.3345,1.337,1.3441,1.3484,1.3544,1.3565,1.3577,1.3649,1.3642,1.3636,1.3616,1.3666,1.369,1.37,1.3577,1.3577,1.3576,1.3576,0,0,1.3089,1.3163,1.3177,1.3205,1.3263,1.3305,1.3361,1.3418,1.3447,1.3493,1.354,1.3615,1.361,1.3645,1.3661,1.3697,1.3753,1.3687,1.3688,1.3697,1.3835,1.3838,1.3849,1.3755,1.3757,1.3759,1.383,0,1.3156,1.3254,1.3276,1.336,1.3409,1.3419,1.3467,1.3508,1.3533,1.3579,1.3608,1.366,1.365,1.367,1.3707,1.3738,1.378,1.3733,1.38,1.3802,1.3785,1.3861,1.3865,1.393,1.384,1.3841,1.3842,0,1.3248,1.3295,1.3383,1.3435,1.3456,1.3499,1.3553,1.3596,1.3644,1.3659,1.3698,1.371,1.3768,1.3745,1.3826,1.3793,1.3822,1.3842,1.3845,1.3851,1.3824,1.3869,1.3951,1.3961,1.3858,1.3856,1.3855,0,1.3286,1.3372,1.3435,1.346,1.3521,1.3551,1.3578,1.3624,1.3657,1.3704,1.3726,1.378,1.381,1.3852,1.3878,1.3859,1.3957,1.3936,1.3971,1.3971,1.3991,1.3989,1.4078,1.4011,1.4011,1.401,1.401,0,1.3359,1.3413,1.3453,1.3492,1.3553,1.3578,1.3637,1.3665,1.3705,1.375,1.3763,1.3805,1.3838,1.3884,1.3906,1.3969,1.3983,1.3997,1.4002,1.3996,1.3994,1.4014,1.401,1.4013,1.4012,1.4012,1.4011,0,1.3412,1.3441,1.3511,1.3563,1.3578,1.362,1.3665,1.3704,1.3729,1.3786,1.3801,1.3841,1.3896,1.3927,1.3998,1.4012,1.4082,1.4085,1.4066,1.4068,1.4101,1.4097,1.4205,1.422,1.4144,1.4144,1.4145,0,1.3456,1.3497,1.3553,1.3584,1.3611,1.3661,1.3694,1.372,1.3754,1.3811,1.3843,1.3899,1.3945,1.4034,1.407,1.4124,1.4128,1.4162,1.4136,1.4128,1.4127,1.4124,1.4128,1.4166,1.4167,1.4167,1.4168,0,1.353,1.3542,1.3589,1.3641,1.368,1.3723,1.3765,1.3789,1.3823,1.3861,1.3917,1.3953,1.4024,1.408,1.4136,1.4165,1.4172,1.4176,1.4187,1.418,1.4167,1.4173,1.4077,1.4173,1.4173,1.4172,1.4172,1.4172,1.3579,1.3616,1.3661,1.3713,1.3747,1.3786,1.3824,1.3854,1.3901,1.396,1.3974,1.4033,1.408,1.4156,1.4186,1.4234,1.4227,1.4243,1.4247,1.425,1.4251,1.416,1.4244,1.4244,1.4244,1.4244,1.4244,0,1.3653,1.3683,1.373,1.3788,1.3829,1.3831,1.3878,1.3912,1.3963,1.4006,1.405,1.4115,1.4169,1.4209,1.4264,1.4294,1.4299,1.4308,1.4305,1.4312,1.4254,1.4239,1.4303,1.4303,1.4303,1.4303,1.4303,1.4303,1.3697,1.3759,1.3776,1.3856,1.3885,1.3942,1.3969,1.4005,1.4038,1.411,1.4154,1.4179,1.4221,1.4279,1.4328,1.4339,1.4358,1.4367,1.4377,1.4322,1.4316,1.431,1.4296,1.4371,1.4371,1.4431,1.4432,1.4432]},{"header":{"parameterUnit":"m.s-1","parameterCategory":1,"la1":30.2991,"la2":30.254,"lo1":-89.0895,"lo2":-89.0444,"dy":0.0017,"dx":0.0017,"nx":28,"ny":28,"refTime":"2024-07-17T21:00:00:Z","depth":0,"parameterNumber":3,"parameterNumberName":"V-component_of_WINDS"},"data":[0,0,0,0,0,0,0,0,0,0,0,0,0,0,0,0,0,0,0,0,0,0,0,0,0,0,0,0,0,0,0,0,0,0,0,0,0,0,0,0,0,0,0,0,0,0,0,0,0,0,0,0,0,0,0,0,0,0,4.7794,4.7793,0,4.7749,4.7748,4.7748,4.7694,4.7693,4.7692,4.7691,4.7643,4.7643,4.7642,0,0,0,0,0,0,0,0,0,0,0,0,0,4.783,4.783,4.7794,4.7793,4.7792,4.7749,4.7748,4.7748,4.7694,4.7693,4.7692,4.7691,4.7643,4.7643,4.7642,0,0,0,0,0,0,0,0,0,0,0,0,0,4.7803,4.783,4.7794,4.776,4.7757,4.7749,4.7748,4.7748,4.7694,4.7693,4.7692,4.7691,4.7643,4.7643,4.7642,4.7662,0,0,4.764,4.7639,0,0,0,0,0,0,0,0,4.7805,4.7802,4.7766,4.7763,4.7759,4.7726,4.7744,4.7719,4.7695,4.7718,4.7691,4.769,4.7671,4.7668,4.7663,4.766,4.7658,4.764,4.7639,4.7639,4.7639,0,0,0,0,0,0,0,4.7807,4.7803,4.7776,4.7765,4.7761,4.7747,4.7742,4.7739,4.7702,4.7716,4.7712,4.7707,4.7669,4.7663,4.7661,4.7657,4.764,4.7639,4.7638,4.7638,4.7669,4.767,0,0,0,0,0,0,4.7814,4.7805,4.7777,4.7774,4.7779,4.7748,4.7742,4.7738,4.7702,4.7696,4.7709,4.7705,4.7665,4.7662,4.7659,4.7679,4.7639,4.7638,4.7638,4.7667,4.7669,4.767,0,0,0,0,0,0,4.7815,4.7812,4.7779,4.7789,4.7784,4.7748,4.7744,4.7737,4.7731,4.7697,4.769,4.7709,4.7664,4.766,4.7662,4.7677,4.7638,4.7637,4.7666,4.7668,4.767,4.7721,0,0,0,0,0,0,4.7816,4.7812,4.782,4.7789,4.7783,4.7783,4.7745,4.7737,4.7731,4.7726,4.7696,4.7689,4.7663,4.7663,4.7661,4.7675,4.7636,4.7664,4.7667,4.7669,4.7718,4.7725,4.7731,0,0,0,0,0,4.7818,4.7836,4.7821,4.7818,4.7792,4.7784,4.7781,4.7751,4.7732,4.7739,4.7717,4.769,4.7677,4.7664,4.7661,4.7675,4.7663,4.7666,4.7669,4.7715,4.7723,4.773,0,0,0,0,0,0,4.7868,4.7831,4.7814,4.7823,4.7807,4.7775,4.7783,4.776,4.7749,4.7744,4.7707,4.7701,4.7707,4.7692,4.7678,4.7693,4.7666,4.7668,4.7702,4.771,4.7716,4.7718,4.7636,0,0,0,0,0,4.788,4.7878,4.7846,4.7857,4.785,4.7818,4.7813,4.7792,4.7774,4.7767,4.7744,4.7727,4.7719,4.7714,4.7704,4.7717,4.7709,4.7725,4.7731,4.7737,4.7738,4.7743,4.7749,4.768,4.768,4.768,0,0,4.7905,4.7885,4.7885,4.7866,4.7851,4.7849,4.7813,4.7811,4.7808,4.7766,4.7766,4.775,4.7728,4.7735,4.7737,4.7722,4.7756,4.774,4.7745,4.7743,4.7746,4.7753,4.7759,4.7682,4.7681,4.7681,0,0,4.7949,4.7934,4.7941,4.7928,4.7906,4.7885,4.7888,4.7859,4.7847,4.7847,4.7815,4.7811,4.7798,4.7784,4.7775,4.7815,4.779,4.7813,4.7845,4.785,4.7855,4.786,4.7872,4.7878,4.7816,4.7816,4.7816,0,4.7982,4.7977,4.7947,4.7948,4.794,4.7904,4.791,4.7899,4.7875,4.787,4.7855,4.7838,4.7821,4.7823,4.7834,4.7828,4.7828,4.7815,4.7857,4.7861,4.7865,4.7877,4.7882,4.7819,4.7818,4.7818,4.7818,0,4.8018,4.8016,4.8024,4.8003,4.7997,4.8001,4.7971,4.7968,4.7948,4.7929,4.7929,4.7908,4.7893,4.7893,4.7873,4.7893,4.7885,4.7864,4.7835,4.7875,4.7885,4.789,4.7823,4.7822,4.7821,4.782,0,0,4.8089,4.8053,4.8057,4.8047,4.8022,4.8019,4.8021,4.8008,4.8006,4.7992,4.7992,4.7983,4.7963,4.7953,4.7932,4.7937,4.7968,4.7915,4.7914,4.7924,4.7988,4.8002,4.8007,4.7953,4.7954,4.7954,4.7989,0,4.8126,4.8128,4.8102,4.8111,4.8108,4.8074,4.8076,4.8061,4.8044,4.8038,4.8019,4.8012,4.7988,4.7982,4.7985,4.7964,4.798,4.7961,4.7951,4.7951,4.7955,4.8013,4.8027,4.8061,4.7993,4.7994,4.7994,0,4.8168,4.8158,4.8166,4.8141,4.8139,4.8141,4.8127,4.8123,4.8105,4.8092,4.8082,4.8058,4.8058,4.8034,4.8033,4.802,4.8015,4.8004,4.8005,4.8,4.7973,4.8008,4.8071,4.8075,4.8,4.8,4.7999,0,4.8217,4.8205,4.8208,4.8201,4.8173,4.8175,4.8163,4.8144,4.8138,4.8126,4.8122,4.811,4.8103,4.8094,4.8067,4.8052,4.8069,4.8042,4.8056,4.8057,4.8059,4.8058,4.8119,4.806,4.806,4.806,4.806,0,4.8259,4.8265,4.8229,4.8231,4.8237,4.8208,4.8215,4.82,4.8184,4.8181,4.8153,4.8151,4.8117,4.8112,4.8091,4.8092,4.809,4.8079,4.8072,4.808,4.8081,4.8073,4.8069,4.8061,4.8061,4.8061,4.806,0,4.8312,4.8289,4.829,4.8264,4.8258,4.8263,4.824,4.8241,4.8223,4.8221,4.8218,4.819,4.8182,4.8156,4.8141,4.8127,4.8134,4.8124,4.814,4.8136,4.8151,4.8149,4.8207,4.8213,4.8152,4.8153,4.8153,0,4.8339,4.8343,4.8318,4.8315,4.8305,4.8301,4.8295,4.8267,4.8262,4.8243,4.8246,4.8236,4.8226,4.8216,4.8193,4.8182,4.817,4.8191,4.8168,4.8175,4.8168,4.8167,4.8166,4.8195,4.8196,4.8197,4.8197,0,4.8389,4.8378,4.8371,4.836,4.8355,4.8345,4.8333,4.8332,4.8301,4.8297,4.829,4.8283,4.8269,4.8259,4.8245,4.8231,4.8209,4.8206,4.8208,4.8214,4.8222,4.8216,4.8151,4.8203,4.8203,4.8202,4.8202,4.8202,4.8428,4.843,4.8413,4.8407,4.8396,4.8386,4.8385,4.8368,4.8361,4.8348,4.8333,4.8327,4.8309,4.8288,4.8277,4.8271,4.8259,4.8263,4.8263,4.8264,4.8267,4.8226,4.8269,4.8269,4.8269,4.8268,4.8268,0,4.8475,4.8463,4.8457,4.8443,4.8438,4.8419,4.8406,4.8402,4.8398,4.8384,4.8376,4.8368,4.8359,4.8337,4.8325,4.8325,4.8314,4.8323,4.8321,4.8318,4.8279,4.8278,4.8332,4.8332,4.8332,4.8332,4.8331,4.8331,4.8498,4.85,4.8487,4.8484,4.8472,4.8466,4.846,4.8451,4.844,4.8432,4.8425,4.8411,4.8394,4.8381,4.8372,4.8366,4.8362,4.8373,4.8363,4.8327,4.8321,4.8315,4.8313,4.8373,4.8373,4.8402,4.8402,4.8403]}]]